PDT,Max TemperatureF,Mean TemperatureF,Min TemperatureF,Max Dew PointF,MeanDew PointF,Min DewpointF,Max Humidity, Mean Humidity, Min Humidity, Max Sea Level PressureIn, Mean Sea Level PressureIn, Min Sea Level PressureIn, Max VisibilityMiles, Mean VisibilityMiles, Min VisibilityMiles, Max Wind SpeedMPH, Mean Wind SpeedMPH, Max Gust SpeedMPH,PrecipitationIn, CloudCover, Events, WindDirDegrees
2013-9-1,72,65,58,58,56,54,93,73,53,29.89,29.88,29.84,9,5,0,10,3,13,0.00,6,Fog,175
2013-9-2,74,64,54,61,59,51,90,76,61,29.95,29.89,29.85,10,7,2,14,4,21,0.03,7,Rain,172
2013-9-3,76,64,52,57,54,48,93,75,57,30.03,29.99,29.95,10,8,1,12,3,16,0.00,1,,115
2013-9-4,75,64,53,59,55,50,89,73,57,30.07,30.05,30.02,10,8,2,12,3,14,0.00,1,,297
2013-9-5,78,66,54,62,55,52,93,74,54,30.06,30.02,29.94,10,4,0,13,4,16,0.01,3,Fog-Rain,340
2013-9-6,71,66,61,61,59,57,90,80,70,30.10,30.02,29.94,7,5,1,12,3,14,T,8,Rain,174
2013-9-7,73,66,58,61,58,56,90,76,61,30.11,30.07,30.04,10,8,5,14,3,17,0.00,6,,292
2013-9-8,68,62,56,61,57,51,93,86,78,30.13,30.10,30.08,9,4,0,9,2,12,0.00,7,Fog,289
2013-9-9,67,62,57,60,57,54,90,84,78,30.09,30.06,30.01,10,3,0,9,4,13,T,8,Fog,336
2013-9-10,87,70,53,62,54,50,93,61,29,30.01,29.96,29.86,10,4,0,10,3,13,0.00,2,Fog,342
2013-9-11,82,71,60,61,58,53,93,70,47,29.99,29.92,29.86,10,6,0,10,4,14,0.00,2,Fog,194
2013-9-12,66,64,61,61,59,57,93,86,78,30.01,29.99,29.96,8,4,1,7,2,16,0.01,8,Rain,173
2013-9-13,66,64,61,61,59,57,90,84,78,29.99,29.96,29.89,8,3,1,6,2,10,0.03,8,Rain,264
2013-9-14,67,64,60,59,57,55,90,84,78,29.89,29.83,29.77,8,3,1,8,2,10,0.01,8,Rain,349
2013-9-15,65,62,59,61,58,56,90,87,84,29.82,29.77,29.73,8,4,0,13,1,17,0.22,8,Fog-Rain-Thunderstorm,212
2013-9-16,69,60,50,59,57,48,90,79,68,29.96,29.89,29.82,8,4,1,9,3,13,0.35,7,Rain,234
2013-9-17,68,59,50,55,50,46,89,74,58,29.97,29.92,29.89,8,5,0,13,3,17,T,4,Fog,298
2013-9-18,69,59,48,56,50,45,89,72,55,30.07,30.03,29.97,7,4,0,12,3,22,0.11,5,Fog-Rain,149
2013-9-19,76,65,54,52,49,45,86,62,38,30.01,29.86,29.76,8,7,6,15,5,20,0.00,1,,109
2013-9-20,64,61,57,59,56,46,90,75,60,29.76,29.64,29.61,8,4,0,12,3,22,1.81,8,Fog-Rain,173
2013-9-21,69,62,54,57,54,52,93,80,67,29.72,29.68,29.65,9,6,1,10,3,14,0.22,6,Rain,168
2013-9-22,65,59,52,57,54,49,87,80,72,29.71,29.57,29.43,8,4,0,21,7,35,1.57,7,Fog-Rain-Thunderstorm,194
2013-9-23,65,58,51,54,50,45,89,69,48,29.96,29.84,29.72,9,6,2,22,5,28,0.23,6,Rain,240
2013-9-24,61,54,47,50,47,44,89,77,64,29.95,29.89,29.86,10,5,1,17,3,20,0.39,5,Rain,85
2013-9-25,66,54,41,49,43,39,93,71,48,30.04,29.93,29.87,10,4,0,13,4,17,0.00,2,Fog,2
2013-9-26,66,54,41,52,45,37,89,73,56,30.14,30.08,30.03,10,7,2,10,2,14,0.00,2,,246
2013-9-27,63,58,53,57,52,49,86,78,69,30.11,29.94,29.81,9,5,1,12,4,20,0.47,8,Rain,190
2013-9-28,61,57,53,57,52,48,90,85,80,29.78,29.40,29.28,8,4,0,32,9,44,1.93,8,Fog-Rain-Thunderstorm,186
2013-9-29,59,56,53,54,51,43,89,75,61,29.45,29.33,29.04,8,3,0,32,12,46,1.77,8,Rain-Thunderstorm,189
2013-9-30,62,55,48,52,47,43,86,75,64,29.86,29.63,29.35,9,6,1,29,10,39,0.43,7,Rain-Thunderstorm,225